P2000 meldingen in Zoetermeer

2021-02-06 20:46:19 - A1 AMBU 17902 Natuursteenlaan 2719TA Zoetermeer ZOETMR bon 16432

2021-02-04 17:46:46 - A1 13991 Rit 10822 Zoetermeer Dolomiet 2719TK rwgio 15

2021-02-03 20:12:57 - A1 AMBU 17992 A12 Li 2716RC Zoetermeer ZOETMR bon 15082

2021-02-03 20:11:33 - A1 AMBU 17902 A12 Li 2716RC Zoetermeer ZOETMR bon 15082

2021-02-02 18:21:47 - B1 SEH 't Lange Land / Toneellaan ZOETMR : 15143

2021-02-02 17:25:36 - B1 SEH 't Lange Land / Toneellaan ZOETMR : 15241

2021-02-02 15:38:00 - A1 Therapeuticum Aurum Frits de Zwerverhove ZOETMR : 15143

2021-02-02 15:25:07 - A2 Driebruggenstraat ZOETMR : 15148

2021-02-02 14:18:48 - A1 Bunuelstrook ZOETMR : 15147

2021-02-02 12:57:13 - A2 DP10 Zoetermeer Brusselstraat ZOETMR VWS 15147

2021-02-02 12:44:52 - A2 Basalt ZOETMR : 15148

2021-02-02 12:38:52 - B1 LL Zkh. covid 2d / Toneellaan ZOETMR : 15212

2021-02-02 12:01:00 - A2 Albrandswaard ZOETMR : 15147

2021-02-02 11:37:20 - P 2 BDH-02 Brandgerucht Denemarkenlaan ZOETMR 159633

2021-02-02 11:33:41 - A1 Strawinskirode ZOETMR : 15142

2021-02-02 11:12:52 - B2 LL Zkh. cardio (2B) / Toneellaan ZOETMR : 15435

2021-02-02 11:04:47 - B1 Welthuis Locatie Buytenhaghe Bergmanstrook ZOETMR : 15212

2021-02-02 10:15:39 - A1 Bordewijkhove ZOETMR : 15147

2021-02-02 10:15:30 - A2 Marsgeel ZOETMR : (rapid) 15342

2021-02-02 09:48:07 - B1 LL Zkh. Chirurgie (3A) / Toneellaan ZOETMR : 15240

2021-02-02 09:22:56 - A2 DP10 Zoetermeer Brusselstraat ZOETMR VWS 15147

2021-02-02 09:15:00 - A2 DP10 Zoetermeer Brusselstraat ZOETMR VWS 15147

2021-02-02 08:08:03 - A2 DP10 Zoetermeer Brusselstraat ZOETMR VWS 15148

2021-02-02 06:06:28 - A1 Lommerbaan ZOETMR : 15141

2021-02-01 23:40:07 - A2 Adigestroom ZOETMR : 15116

2021-02-01 23:38:11 - A2 Adigestroom ZOETMR : 15142

2021-02-01 23:02:39 - A2 Tarweakker ZOETMR : 15146

2021-02-01 22:45:30 - P 2 BDH-03 CO-melder (koolmonoxide/CO) Mendelssohnrode ZOETMR 159633

2021-02-01 19:35:18 - A1 Schuddebeursstraat ZOETMR : 15148

2021-02-01 19:15:25 - A1 Obrechtrode ZOETMR : 15142

2021-02-01 18:05:35 - A1 Iepehout ZOETMR : 15118

2021-02-01 17:34:52 - A2 Hoogvliet Van Stolberglaan ZOETMR : 15141

2021-02-01 17:18:44 - A1 Van Leeuwenhoeklaan ZOETMR : 15148

2021-02-01 16:42:09 - A1 Zalkerbos ZOETMR : 15143

2021-02-01 16:41:09 - A1 Busken Huethove ZOETMR : 15146

2021-02-01 16:28:50 - P 2 BDH-01 Liftopsluiting Alferbos ZOETMR 159633

2021-02-01 15:57:59 - A2 DP10 Zoetermeer Brusselstraat ZOETMR VWS 15146

2021-02-01 15:18:52 - A2 Welthuis Locatie Buytenhaghe Bergmanstrook ZOETMR : 15107

2021-02-01 15:11:22 - A2 Stn Leidse Wallen Spoor 2 (Zg) ZOETMR : 15148

2021-02-01 15:10:37 - A2 Gezondheidscentrum Noordhove Sullivanlijn ZOETMR : 15143

2021-02-01 15:05:28 - A2 DP10 Zoetermeer Brusselstraat ZOETMR VWS 15148

2021-02-01 14:36:06 - A2 Post Zoetermeer / Blauw-roodlaan ZOETMR VWS 15147

2021-02-01 14:10:35 - A1 De Leyens Hekbootkade ZOETMR : 15143

2021-02-01 14:06:07 - A2 DP10 Zoetermeer Brusselstraat ZOETMR VWS 15141

2021-02-01 14:05:46 - A2 Denemarkenlaan ZOETMR : (rapid) 15342

2021-02-01 13:32:09 - A2 Johan Willem Frisostraat ZOETMR : 15142

2021-02-01 13:15:24 - B1 Voorweg ZOETMR : 15342

2021-02-01 13:02:24 - B1 Kristal ZOETMR : 15147

2021-02-01 12:27:18 - A2 Politiebureau 41 (Zoetermeer) Burgemeester Wegstap ZOETMR : 15141

2021-02-01 12:14:12 - A1 Edelgasstraat ZOETMR : 15142

2021-02-01 11:56:09 - A1 Dunantstraat ZOETMR : 15147

2021-02-01 11:06:58 - A1 AMBU 17902 Lester Youngrode 2717CG Zoetermeer ZOETMR bon 13954

2021-02-01 11:06:07 - A1 Lester Youngrode ZOETMR : 15131 HELI02

2021-02-01 10:49:03 - A2 Gezondheidscentrum Oosterheem Oosterheemplein ZOETMR : 15147

2021-02-01 10:40:40 - A2 Duitslandlaan ZOETMR : 15142

2021-02-01 10:25:24 - A2 LL Zkh. CCU / Toneellaan ZOETMR : 16154

2021-02-01 10:00:12 - A1 Uiterwaard ZOETMR : 15147

2021-02-01 09:43:37 - B1 LL Zkh. covid 2d / Toneellaan ZOETMR : 15212

2021-02-01 09:42:42 - B2 LL Zkh. Gyn. R65/ Toneellaan ZOETMR : 15401

2021-02-01 09:40:11 - A2 Post Zoetermeer / Blauw-roodlaan ZOETMR VWS 15120

2021-02-01 09:09:18 - A1 Rhoonstraat ZOETMR : 15104

2021-02-01 08:56:48 - A2 Douschans ZOETMR : 15142

2021-02-01 08:32:52 - P 1 BDH-04 Alarm rookmelder Luxemburglaan ZOETMR 159633

2021-02-01 08:31:01 - A1 Paulusschool Dr. J. W. Paltelaan ZOETMR : 15106

2021-02-01 08:06:14 - A2 Schinkelweg ZOETMR : 15104

2021-02-01 07:50:35 - A2 DP10 Zoetermeer Brusselstraat ZOETMR VWS 15142

2021-02-01 02:21:12 - A1 Tempelberg ZOETMR : 15141

2021-01-31 23:54:01 - A1 Kennemerland ZOETMR : 15112

2021-01-31 23:52:38 - B1 SEH 't Lange Land / Toneellaan ZOETMR : 15221

2021-01-31 23:01:07 - A1 LL Zkh. ICU (R29) / Toneellaan ZOETMR : 15141

2021-01-31 22:58:57 - B2 SEH 't Lange Land / Toneellaan ZOETMR : 15221

2021-01-31 22:52:10 - A1 Johan Willem Frisostraat ZOETMR : 15142

2021-01-31 20:45:27 - P 2 BDH-02 Ongeval letsel (tilassistentie) Dunantstraat ZOETMR 159633

2021-01-31 19:34:53 - A1 Leopoldhove ZOETMR : 15113

2021-01-31 19:04:36 - A1 Nadinegang ZOETMR : 15101

2021-01-31 18:44:12 - A2 Welthuis Locatie Buytenhaghe Beru@bjbhgmanstrook ZOETMR

2021-01-31 18:41:25 - P 1 BDH-03 Brandgerucht Argonstraat ZOETMR 155330

2021-01-31 18:19:31 - A1 Bijdorplaan ZOETMR : 15142

2021-01-31 15:50:08 - A2 Amsterdamstraat ZOETMR : 15141

2021-01-31 14:17:59 - A1 AMBU 17992 Moldaustroom 2721BX Zoetermeer ZOETMR bon 13597

2021-01-31 14:01:03 - Prio 4 A12 Re 11,0 ZOETMR Dier in problemen

2021-01-31 13:29:51 - Prio 4 Louis Braillelaan ZOETMR Demonstratie

2021-01-31 12:25:12 - B2 SEH 't Lange Land / Toneellaan ZOETMR : 15211

2021-01-31 12:21:03 - A1 Kinderen van Versteegplein ZOETMR : 15143

2021-01-31 11:51:16 - A1 Gershwinrode ZOETMR : 16175

2021-01-31 11:43:06 - A1 Chrysantentuin ZOETMR : 16173

2021-01-31 09:38:25 - Prio 4 Afrit A12 Re - Zoetermeer-Centrum 6 13,0 A ZOETMR Wegverkeer verkeersstremming (soort stremming: pechgeval)

2021-01-31 08:58:53 - A1 Welthuis Locatie Buytenhaghe Bergmanstrook ZOETMR : 15142

2021-01-31 08:56:30 - B1 LL Zkh. CCU / Toneellaan ZOETMR : 15211

2021-01-31 02:18:43 - A1 NH Hotel Zoetermeer Danny Kayelaan ZOETMR : 15141

2021-01-31 00:41:39 - P 2 BDH-02 Stank/Hinder. lucht (vreemde lucht) Oranjelaan ZOETMR 159633

2021-01-30 22:22:37 - A1 Westerschelde ZOETMR : 15142

2021-01-30 21:02:55 - P 2 BDH-04 Liftopsluiting Bagijnenwaard ZOETMR 159633

2021-01-30 20:44:00 - A1 Palissanderhout ZOETMR : 15148

2021-01-30 20:43:19 - A1 Palissanderhout ZOETMR : 15102

2021-01-30 20:16:30 - A1 Zorgpension Zoetermeer (2e) Brechtzijde ZOETMR : 15142

2021-01-30 19:55:51 - A2 AMBU 17304 Toneellaan 2725NA Zoetermeer ZOETMR bon 13336

2021-01-30 19:07:56 - A2 Post Zoetermeer / Blauw-roodlaan ZOETMR VWS 15102

2021-01-30 18:55:50 - A1 Oosterheemplein ZOETMR : 15148

2021-01-30 17:45:47 - A2 AMBU 17304 Toneellaan 2725NA Zoetermeer ZOETMR bon 13286

2021-01-30 15:53:07 - A1 Reimsstraat ZOETMR : 15148

2021-01-30 15:02:24 - A1 Ameland ZOETMR : 15148

2021-01-30 14:28:21 - P 2 BDH-02 Watero6erhast Van o`?Aalstlaan ZOETMR 1553

2021-01-30 14:26:20 - P 2 BDH-02 Wateroverlast Van Aalstlaan ZOETMR 155330

2021-01-30 14:24:54 - A2 Meerzichtlaan ZOETMR : 15109

2021-01-30 13:48:37 - A2 LL Zkh. Onco/Dagb (2A) / Toneellaan ZOETMR : 15117

2021-01-30 12:21:03 - A1 Juweellaan ZOETMR : 15142

2021-01-30 12:12:44 - A2 Giekwerf ZOETMR : 15117

2021-01-30 10:49:24 - A1 Oosterheemplein ZOETMR : 15142

2021-01-30 05:57:54 - A2 Bijdorplaan ZOETMR : 15141

2021-01-30 02:26:41 - A1 Kraaienveld thv buurthuis ZOETMR : 15143

2021-01-30 01:49:29 - U mag retour zoetermeer, dank u

2021-01-30 01:49:07 - A1 Mainstroom ZOETMR : 15141

2021-01-29 23:52:29 - A1 Basalt ZOETMR : 15143

2021-01-29 21:43:13 - A1 Boerhaavelaan Dunantstraat ZOETMR : 15118

2021-01-29 21:42:25 - A2 Jagersbos ZOETMR : 15116

2021-01-29 21:39:58 - Prio 1 Boerhaavelaan Dunantstraat ZOETMR Ongeval wegvervoer letsel

2021-01-29 21:37:35 - A1 Boerhaavelaan Van Stolberglaan ZOETMR : 15142

2021-01-29 20:57:03 - A1 Koekoekveld ZOETMR : 15148

2021-01-29 18:22:31 - A2 Karel Doormanlaan ZOETMR : 15105

2021-01-29 18:21:46 - A1 Kraaienveld ZOETMR : 15148

2021-01-29 18:14:07 - A2 Karel Doormanlaan ZOETMR : 15148

2021-01-29 16:03:55 - A1 Coornherthove ZOETMR : 15148

2021-01-29 15:28:59 - Prio 1 Pastellaan Blauw-roodlaan ZOETMR Ongeval wegvervoer letsel

2021-01-29 14:10:23 - B1 Gaardedreef ZOETMR : 15221

2021-01-29 12:28:59 - A1 Havikveld ZOETMR : 15141

2021-01-29 12:28:01 - A1 Paganinirode ZOETMR : 15143

2021-01-29 12:25:16 - B1 Hildebrandhove ZOETMR : 15147

2021-01-29 12:12:20 - A2 DP10 Zoetermeer Brusselstraat ZOETMR VWS 15147

2021-01-29 12:01:16 - B2 Gondelkade ZOETMR : 15402

2021-01-29 11:21:38 - A1 Albrandswaard ZOETMR : 15142

2021-01-29 10:38:55 - B1 LL Zkh. CCU / Toneellaan ZOETMR : 15211

2021-01-29 10:24:05 - B2 Reinier Haga orthopedisch centrum Toneellaan ZOETMR : 15430

2021-01-29 10:00:29 - B1 LL Zkh. CCU / Toneellaan ZOETMR : 15212

2021-01-29 09:29:44 - A1 Van Leeuwenhoeklaan ZOETMR : 15141

2021-01-29 09:26:55 - A2 DP10 Zoetermeer Brusselstraat ZOETMR VWS 15141

2021-01-29 09:09:32 - A1 Gondelkade ZOETMR : 15142

2021-01-29 09:01:29 - A1 Madernarode ZOETMR : 15143

2021-01-29 08:02:33 - A1 Willem van Cleeflaan ZOETMR : 15142

2021-01-29 05:56:33 - P 2 BDH-02 CO-melder (koolmonoxide/CO) Napelsgeel ZOETMR 155330

2021-01-29 04:34:18 - A1 Roggeakker ZOETMR : 15141

2021-01-29 04:34:04 - A1 Roggeakker ZOETMR : 15141

2021-01-29 02:19:06 - A1 Ameidestraat ZOETMR : 15141

2021-01-29 00:01:47 - A1 Hoornsemeer ZOETMR : 15107

2021-01-28 23:20:57 - A2 Cederzoom ZOETMR : 15141

2021-01-28 22:58:53 - B1 SEH 't Lange Land / Toneellaan ZOETMR : 15211

2021-01-28 22:38:56 - A2 SEH 't Lange Land / Toneellaan ZOETMR : 15142

2021-01-28 21:17:16 - A1 Piet Heinstraat ZOETMR : 15142

2021-01-28 19:57:53 - A1 5 Mei-Straat ZOETMR : 15148

2021-01-28 19:20:06 - P 1 BDH-02 Gebouwbrand woning Van Aalstlaan ZOETMR 159592 155250 159633 157430

2021-01-28 19:12:57 - P 1 BDH-01 Dienstverlening Schiebroekstraat ZOETMR 159591 155330

2021-01-28 19:01:19 - B1 Schiebroekstraat ZOETMR : 15142

2021-01-28 16:19:03 - P 2 BDH-02 Ass. ambu (afhijsen patient) Herfstbruin ZOETMR 155250 155330

2021-01-28 15:57:27 - A1 Herfstbruin ZOETMR : 15148

2021-01-28 14:37:57 - A1 Haagsebos ZOETMR : 15141

2021-01-28 14:27:16 - A1 Ambachtsherenlaan ZOETMR : 15146

2021-01-28 12:36:45 - A1 Vasariruimte ZOETMR : 15141

2021-01-28 12:21:06 - A2 DP10 Zoetermeer Brusselstraat ZOETMR VWS 15141

2021-01-28 11:44:36 - B1 De Rozentuin Naomigang ZOETMR : 15241

2021-01-28 11:03:19 - A2 Welthuis Locatie Vivaldi Brechtzijde ZOETMR : 15142

2021-01-28 10:50:14 - B2 LL Zkh. Gyn. R65/ Toneellaan ZOETMR : 15402

2021-01-28 10:30:57 - A2 DP10 Zoetermeer Brusselstraat ZOETMR VWS 15142

2021-01-28 09:57:41 - A1 Heicopstraat ZOETMR : 15121

2021-01-28 09:47:04 - B2 LL Zkh. cardio (2B) / Toneellaan ZOETMR : 15225

2021-01-28 09:42:57 - A2 DP10 Zoetermeer Brusselstraat ZOETMR VWS 15121

2021-01-28 09:42:04 - A1 De Leyens Hekbootkade ZOETMR : 15147

2021-01-28 09:39:23 - A1 De Leyens Hekbootkade ZOETMR : 15121

2021-01-28 09:15:10 - A2 Tuindreef ZOETMR : 15146

2021-01-28 09:09:10 - A2 DP10 Zoetermeer Brusselstraat ZOETMR VWS 15146

2021-01-28 08:34:45 - A2 Tankenberg ZOETMR : 15147

2021-01-28 08:07:10 - B2 LL Zkh. Interne (R60) / Toneellaan ZOETMR : 15430

2021-01-28 07:31:12 - A2 Oliver Hardystrook ZOETMR : 15142

2021-01-28 07:27:49 - A2 Oliver Hardystrook ZOETMR : 15130

2021-01-28 06:53:38 - A1 Beatrijspad ZOETMR : 15142

2021-01-28 06:47:19 - A1 Beatrijspad ZOETMR : 15141

2021-01-28 02:14:26 - A1 Andoornvaart ZOETMR : 15141

2021-01-27 21:46:30 - A1 Piet Heinstraat ZOETMR : 15142

2021-01-27 17:40:56 - A1 Shawzijde ZOETMR : 15143

2021-01-27 16:46:13 - A1 Montferland ZOETMR : 15148

2021-01-27 16:40:21 - A1 Krijtwit ZOETMR : 15142

2021-01-27 16:14:40 - A2 DP10 Zoetermeer Brusselstraat ZOETMR VWS 15148

2021-01-27 16:03:27 - A2 Groen-blauwlaan ZOETMR : 15141

2021-01-27 15:37:50 - P 1 BDH-04 Autom. brand OMS Welthuis Locatie Domus Bijdorplaan ZOETMR 159633

2021-01-27 15:28:47 - P 2 BDH-04 Buitenbrand Belvederebos ZOETMR 159633

2021-01-27 14:07:17 - B2 Hazewater ZOETMR : 15221

2021-01-27 13:42:30 - B1 Welthuis Oosterheem Magnolia Oosterheemplein ZOETMR : 15241

2021-01-27 12:42:21 - B1 Zilverberg ZOETMR : 15147

2021-01-27 12:07:09 - A2 DP10 Zoetermeer Brusselstraat ZOETMR VWS 15143

2021-01-27 11:30:21 - B2 LL Zkh. Interne (R62) / Toneellaan ZOETMR : 15436

2021-01-27 10:47:04 - A1 Anna Blamanhove ZOETMR : 15141

2021-01-27 10:44:52 - A1 Melkwit ZOETMR : 15109

2021-01-27 10:40:13 - A1 Lucillegang ZOETMR : 15124

2021-01-27 09:27:12 - P 2 BDH-03 Ass. ambu (afhijsen patient) Oliver Hardystrook ZOETMR 159592 155250 159633

2021-01-27 09:12:06 - P 1 BDH-02 Stank/Hinder. lucht (gaslucht) Argonstraat ZOETMR 155330

2021-01-27 09:11:36 - B1 Woonvoorziening Buytenwegh Leopoldhove ZOETMR : 15223

2021-01-27 09:00:36 - B1 LL Zkh. covid 2d / Toneellaan ZOETMR : 15241

2021-01-27 08:50:23 - A2 Oliver Hardystrook ZOETMR : 15111

2021-01-27 08:46:21 - A1 Vrouwenhuiswaard ZOETMR : 15146

2021-01-27 08:20:36 - B2 Ziekenhuhs 't`Langeland Toneeln?ZOETMR : 15240

2021-01-27 06:11:53 - Prio 4 Toerit A12 Li - Zoetermeer 7 ZOETMR Ongeval wegvervoer materieel

2021-01-27 03:35:47 - B1 SEH 't Lange Land / Toneellaan ZOETMR : 15240

2021-01-27 02:40:22 - A1 Uiterwaard ZOETMR : 15141

2021-01-27 02:36:07 - A1 Uiterwaard ZOETMR : 16154

2021-01-27 00:54:28 - P 2 BDH-02 Wateroverlast Weigeliapark ZOETMR 159633

2021-01-26 22:01:20 - A1 Schokland ZOETMR : 15148

2021-01-26 17:24:17 - A2 Tasmanie ZOETMR : 15143

2021-01-26 17:21:39 - P 2 BDH-01 Liftopsluiting Onderlangs ZOETMR 159633

2021-01-26 16:12:37 - A1 Albert Heijn Westwaarts ZOETMR : 15141

2021-01-26 16:11:25 - A1 Uiterwaard Huisartspraktijk ZOETMR : 15148

2021-01-26 16:01:22 - A2 Post Zoetermeer / Blauw-roodlaan ZOETMR VWS 15142

2021-01-26 15:49:41 - A2 DP10 Zoetermeer Brusselstraat ZOETMR VWS 15148

2021-01-26 15:32:35 - Prio 1 Velddreef ZOETMR Overval

2021-01-26 15:01:04 - B1 De Rozentuin Naomigang ZOETMR : 15240

2021-01-26 14:51:58 - B1 SEH 't Lange Land / Toneellaan ZOETMR : 15211

2021-01-26 14:17:54 - A2 Balijbrug ZOETMR : 15147

2021-01-26 10:57:56 - A1 Edelgasstraat ZOETMR : 15146

2021-01-26 06:06:46 - A1 Candidaschouw ZOETMR : 15141

2021-01-26 04:46:31 - A2 Binnenwater ZOETMR : 15107

2021-01-26 04:39:20 - A1 Robijn ZOETMR : 15101

2021-01-26 03:32:18 - B2 SEH 't Lange Land / Toneellaan ZOETMR : 15240

2021-01-26 00:55:48 - A1 Gershwinrode ZOETMR : 15141

2021-01-26 00:07:39 - A1 Schansbaan ZOETMR : 16150

2021-01-25 18:33:26 - A1 Abel Tasmanrede ZOETMR : 15148

2021-01-25 16:48:46 - A1 Karel Doormanlaan ZOETMR : 15143

2021-01-25 16:42:20 - B1 Albrandswaard ZOETMR : 15240

2021-01-25 16:19:57 - A1 Essehout ZOETMR : 15141

2021-01-25 16:03:33 - A1 Vissendreef ZOETMR : 15148

2021-01-25 16:01:09 - A2 DP10 Zoetermeer Brusselstraat ZOETMR VWS 15148

2021-01-25 14:40:14 - A1 Vogeldreef ZOETMR : 15147

2021-01-25 14:24:07 - A2 Shetland ZOETMR : 15147

2021-01-25 13:13:44 - A2 DP10 Zoetermeer Brusselstraat ZOETMR VWS 15147

2021-01-25 13:12:00 - A2 Schuddebeursstraat ZOETMR : 15148

2021-01-25 12:56:15 - B1 Jacobus Bellamyhove ZOETMR : 15213

2021-01-25 12:52:43 - A2 Welthuis Locatie Vivaldi Brechtzijde ZOETMR : 15143

2021-01-25 12:30:35 - A2 DP10 Zoetermeer Brusselstraat ZOETMR VWS 15143

2021-01-25 12:00:24 - A2 Dunantstraat ZOETMR : 15113

2021-01-25 11:07:57 - A2 Rogerslijn ZOETMR : 15141

2021-01-25 11:01:33 - B1 LL Zkh. cardio (2B) / Toneellaan ZOETMR : 15213

2021-01-25 09:35:39 - A2 DP10 Zoetermeer Brusselstraat ZOETMR VWS 15147

2021-01-25 09:27:33 - A2 Post Zoetermeer / Blauw-roodlaan ZOETMR VWS 15126

2021-01-25 08:49:18 - P 1 BDH-01 CO-melder Bootsmastraat ZOETMR 159591 155230

2021-01-25 08:36:44 - A1 Vrouwenhuiswaard ZOETMR : 15147

2021-01-25 08:04:52 - B2 Ziekenhuis 't Langeland Toneellaan ZOETMR : 15402

2021-01-25 08:00:48 - B2 LL Zkh. cardio (2B) / Toneellaan ZOETMR : 15211

2021-01-25 04:05:22 - P 2 BDH-03 Alarm rookmelder Falkland ZOETMR 159632

2021-01-25 03:31:46 - A2 Juweellaan ZOETMR : 15141

2021-01-25 01:34:20 - P 1 BDH-01 Autom. brand OMS Ziekenhuis 't Langeland Toneellaan ZOETMR 155230

2021-01-24 22:59:40 - A1 Peursumstraat ZOETMR : 15141

2021-01-24 22:30:03 - A2 Azuurblauw ZOETMR : 15148

2021-01-24 22:14:09 - P 2 BDH-01 Buitenbrand berm/ruigte Symfoniepad Frank Sinatrarode ZOETMR 155230

2021-01-24 21:51:16 - A2 Fletcher Hendersonrode ZOETMR : 15146

2021-01-24 19:36:14 - A1 Heinenoordstraat ZOETMR : 15146

2021-01-24 16:33:35 - B2 SEH 't Lange Land / Toneellaan ZOETMR : 15241

2021-01-24 15:06:55 - A1 LL Zkh. CCU / Toneellaan ZOETMR : 15146

2021-01-24 13:25:44 - A2 Nathaliegang ZOETMR : 15112

2021-01-24 13:22:44 - A1 Scheveningsebos ZOETMR : 15143

2021-01-24 13:19:52 - A1 Willem van Cleeflaan ZOETMR : 15141

2021-01-24 12:53:07 - A2 Panamapad ZOETMR : 15148

2021-01-24 10:53:53 - A2 De Lelienborgh Duitslandlaan ZOETMR : 15148

2021-01-24 10:32:39 - A1 Welthuis Locatie Buytenhaghe Bergmanstrook ZOETMR : 15143

2021-01-24 10:17:48 - P 2 BDH-02 Dier op hoogte F.C. Zoetermeer Scheglaan ZOETMR 159632

2021-01-24 09:44:10 - A1 LL Zkh. CCU / Toneellaan ZOETMR : 15141

2021-01-24 08:48:27 - A2 Vero Mode Promenade ZOETMR : 15147

2021-01-24 07:24:14 - P 2 BDH-03 Ass. ambu (afhijsen patient) Collinsland ZOETMR 155250 155230

2021-01-24 07:03:42 - A2 Collinsland ZOETMR : 15148

2021-01-24 06:13:03 - A1 Jacobus Bellamyhove ZOETMR : 15143

2021-01-24 05:06:12 - A2 Welthuis Locatie Domus Bijdorplaan ZOETMR : 15141

2021-01-24 04:58:05 - A1 Fledderusplan ZOETMR : 15143

2021-01-24 04:37:12 - P 2 BDH-01 Buitenbrand container (afvalcontainer) Planbaan Ton Albertsplan ZOETMR 155230

2021-01-23 22:13:48 - Collega's graag retour post Zoetermeer

2021-01-23 19:09:01 - A2 Weigeliapark ZOETMR : 15148

2021-01-23 18:52:55 - P 2 BDH-01 Dienstverlening Kazerne Stadshart Brusselstraat ZOETMR 155230

2021-01-23 17:44:57 - B2 SEH 't Lange Land / Toneellaan ZOETMR : 15240

2021-01-23 17:41:33 - B2 SEH 't Lange Land / Toneellaan ZOETMR : 15241

2021-01-23 15:15:44 - P 1 BDH-03 Brandgerucht Van Aalstlaan ZOETMR 159632

2021-01-23 14:35:34 - A2 NH Hotel Zoetermeer Danny Kayelaan ZOETMR : 15115

2021-01-23 13:53:44 - A1 Reigersblauw ZOETMR : 15141

2021-01-23 13:11:29 - B2 Buurtzorgpension Schoolstraat ZOETMR : 15430

2021-01-23 12:11:43 - A1 Salland ZOETMR : 16183

2021-01-23 12:00:04 - A1 Beveland ZOETMR : 15143

2021-01-23 11:20:17 - B2 Reinier Haga orthopedisch centrum Toneellaan ZOETMR : 15211

2021-01-23 11:07:05 - A2 Hockeyvereniging M.H.C.Z. Van der Hagenstraat ZOETMR : 15143

2021-01-23 05:11:26 - A2 Laveibos ZOETMR : 15141

2021-01-23 01:01:51 - A2 Nervilijn ZOETMR : 15143

2021-01-22 23:01:58 - A2 Leiwater ZOETMR : 15143

2021-01-22 22:19:23 - A1 Engelandlaan ZOETMR : 15148

2021-01-22 21:52:15 - A2 Briljant ZOETMR : 15147

2021-01-22 21:14:32 - P 1 BDH-01 Autom. brand OMS V.V.E. Bijdorplaan Bijdorplaan ZOETMR 155230

2021-01-22 21:10:08 - A1 Strawinskirode ZOETMR : 15148

2021-01-22 19:16:42 - A1 AMBU 17902 Schansbaan 2728GH Zoetermeer ZOETMR bon 9862

2021-01-22 19:11:08 - A1 Schansbaan ZOETMR : 15147

2021-01-22 16:49:15 - P 2 BDH-01 Buitenbrand container Onderlangs ZOETMR 155230

2021-01-22 16:41:46 - P 1 BDH-01 Autom. brand OMS Hotel de Sniep Broekwegschouw ZOETMR 155230

2021-01-22 16:32:34 - A1 Loosduinenstraat ZOETMR : 15141

2021-01-22 16:11:10 - A1 SEH 't Lange Land / Toneellaan ZOETMR : 15147

2021-01-22 16:06:41 - B1 SEH 't Lange Land / Toneellaan ZOETMR : 15240

2021-01-22 15:45:13 - A1 Welthuis Locatie Buytenhaghe Bergmanstrook ZOETMR : 15148

2021-01-22 15:27:26 - A2 Bunuelstrook ZOETMR : 15109

2021-01-22 15:23:25 - P 2 BDH-03 Dienstverlening Dekker Zoetermeer BV Scheglaan ZOETMR 159632

2021-01-22 15:03:08 - B2 Ziekenhuis 't Langeland Toneellaan ZOETMR : 15241

2021-01-22 14:26:49 - Prio 1 A12 Re 10,7 ZOETMR Wegverkeer verkeersstremming

2021-01-22 14:11:12 - A2 Welthuis Oosterheem Magnolia Oosterheemplein ZOETMR : 15143

2021-01-22 14:01:23 - A1 Mahatma Gandhisingel Madame Curiesingel ZOETMR : 15142

2021-01-22 13:59:38 - Prio 1 Mahatma Gandhisingel Madame Curiesingel ZOETMR Ongeval wegvervoer letsel

2021-01-22 13:03:25 - B1 LL Zkh. Interne (R62) / Toneellaan ZOETMR : 15147

2021-01-22 12:14:56 - A1 Langeberg ZOETMR : 15141

2021-01-22 12:04:00 - P 1 BDH-02 Ass. ambu (afhijsen patient) Vaartdreef ZOETMR 155250 155230

2021-01-22 12:01:28 - P 2 BDH-07 Stank/Hinder. lucht (gaslucht) Van Alkemadehof ZOETMR 155330

2021-01-22 11:51:13 - A2 Vaartdreef ZOETMR : 15147

2021-01-22 11:47:47 - A2 Vaartdreef ZOETMR : 15116

2021-01-22 11:39:41 - A2 Eemland ZOETMR : 15143

2021-01-22 10:42:26 - B2 LL Zkh. cardio (2B) / Toneellaan ZOETMR : 15436

2021-01-22 10:39:00 - A1 (DIA: ja) AMBU 17992 Dunantstraat 2713TW Zoetermeer ZOETMR bon 9606

2021-01-22 10:36:38 - A1 Europaweg ZOETMR : 15143

2021-01-22 10:36:24 - A1 Dunantstraat ZOETMR : 15141

2021-01-22 10:34:23 - A1 Dunantstraat ZOETMR : 15143

2021-01-22 10:34:02 - u mag richting zoetermeer

2021-01-22 10:33:42 - A1 Europaweg ZOETMR : 15141

2021-01-22 10:06:00 - P 1 BDH-04 Autom. brand OMS Welthuis Locatie Buytenhaghe Bergmanstrook ZOETMR 155230

2021-01-22 08:44:21 - B1 LL Zkh. Onco/Dagb (2A) / Toneellaan ZOETMR : 15212

2021-01-22 06:59:40 - A1 Florens van Brederodestraat ZOETMR : 15142

2021-01-22 06:23:58 - A1 Leiwater ZOETMR : 15141

2021-01-22 01:55:34 - A2 Fonteinbos ZOETMR : 15102

2021-01-21 19:37:43 - A1 Peter Zuidhove ZOETMR : 15124

2021-01-21 19:02:07 - P 2 BDH-02 Buitenbrand Bowling Westerpark Heuvelweg ZOETMR 155230

2021-01-21 18:52:26 - A1 Anna Blamanhove ZOETMR : 15142

2021-01-21 18:40:32 - A1 Londenstraat ZOETMR : 15147

2021-01-21 18:30:41 - A1 Chopinrode ZOETMR : 15124

2021-01-21 17:51:11 - A1 Justus van Effenhove ZOETMR : 15147

2021-01-21 17:43:41 - A1 Bouwhof Edisonstraat ZOETMR : 15142

2021-01-21 16:37:13 - A1 Den Brabanderhove ZOETMR : 15142

2021-01-21 16:10:24 - A2 Welthuis Locatie Vivaldi Brechtzijde ZOETMR : 15147

2021-01-21 15:43:00 - A2 Lijnbaan ZOETMR : 15143

2021-01-21 14:32:11 - A1 Azobehout ZOETMR : 15143

2021-01-21 11:42:30 - A2 Huisartspraktijk 3c (dr. Verhoef) Uiterwaard ZOETMR : 15142

2021-01-21 11:28:34 - B2 LL Zkh. cardio (2B) / Toneellaan ZOETMR : 15430

2021-01-21 11:20:26 - A1 Van Brakelstraat ZOETMR : 15143

2021-01-21 10:40:35 - B2 LL Zkh. Interne (R62) / Toneellaan ZOETMR : 15401

2021-01-21 10:18:41 - A2 Voorweg ZOETMR : 15143

2021-01-21 09:36:22 - A1 Garnierruimte ZOETMR : 15148

2021-01-21 09:33:21 - A1 Jacobus Bellamyhove ZOETMR : 15142

2021-01-21 09:32:41 - B2 Welthuis Locatie De Morgenster Nassaulaan ZOETMR : 15401

2021-01-21 09:31:37 - A2 Juweellaan ZOETMR : 15146

2021-01-21 09:24:56 - A2 Juweellaan ZOETMR : 15146

2021-01-21 09:17:05 - B2 LL Zkh. cardio (2B) / Toneellaan ZOETMR : 15430

2021-01-21 09:11:53 - B1 Welthuis Locatie Vivaldi Brechtzijde ZOETMR : 15221

2021-01-21 08:49:56 - A2 DP10 Zoetermeer Brusselstraat ZOETMR VWS 15142

2021-01-21 07:49:46 - A2 Nansenrede ZOETMR : 15142

2021-01-21 01:36:30 - A2 Kaaskenswater ZOETMR : 15141

2021-01-20 23:50:16 - A1 Dudokplan ZOETMR : 15107

2021-01-20 23:44:13 - P 2 BDH-02 Stormschade (los dak/geveldeel) Palestrinarode ZOETMR 155230

2021-01-20 23:07:48 - A1 Hoevenbos ZOETMR : 15141

2021-01-20 21:04:43 - A1 Schiebroekstraat ZOETMR : 15148

2021-01-20 20:54:46 - A1 Barietgeel ZOETMR : 15147

2021-01-20 19:37:42 - A1 Peulenakker ZOETMR : 15148

2021-01-20 18:58:01 - A2 SV Oosterheem Buytenparklaan ZOETMR : 15147

2021-01-20 18:41:43 - A1 Andriessenrode ZOETMR : 15143

2021-01-20 18:08:05 - A1 Rogerslijn ZOETMR : 15142

2021-01-20 17:35:22 - A1 Gehandicapten woningen Leopoldhove ZOETMR : 15104 15114

2021-01-20 17:33:09 - A1 Westerschelde ZOETMR : 15147

2021-01-20 17:09:05 - A1 Fonteinbos ZOETMR : 15142

2021-01-20 16:41:59 - A1 Alferbos ZOETMR : 15143

2021-01-20 15:57:46 - A2 De Watertoren Nathaliegang ZOETMR : 15141

2021-01-20 14:01:39 - A1 Paletsingel Kleurlaan ZOETMR : 15142

2021-01-20 13:59:46 - Prio 1 Paletsingel Kleurlaan ZOETMR Ongeval wegvervoer letsel

2021-01-20 13:59:24 - B1 Paletsingel Kleurlaan ZOETMR : 15142

2021-01-20 13:41:59 - A2 DP10 Zoetermeer Brusselstraat ZOETMR VWS 15143

2021-01-20 12:01:26 - A1 Bijdorplaan ha praktijk ZOETMR : 15142

2021-01-20 10:17:54 - B2 LL Zkh. cardio (2B) / Toneellaan ZOETMR : 15240

2021-01-20 09:57:47 - A1 Van Lodensteinstraat ZOETMR : 15141

2021-01-20 09:00:52 - B2 LL Zkh. Interne (R60) / Toneellaan ZOETMR : 15241

2021-01-20 08:52:46 - A2 Vlamingstraat J.L. van Rijweg ZOETMR : 15147

2021-01-20 08:45:13 - B2 LL Zkh. cardio (2B) / Toneellaan ZOETMR : 15403

2021-01-20 07:42:39 - B2 Hazewater ZOETMR : 15402

2021-01-20 07:41:58 - A2 Stadhoudersring ZOETMR : 15147

2021-01-20 05:39:40 - A1 Medeaschouw ZOETMR : 15141

2021-01-20 02:31:59 - A2 Westerschelde ZOETMR : 15141

2021-01-20 01:31:12 - A1 Tijberg ZOETMR : 15110

2021-01-20 01:18:26 - A2 Laveibos ZOETMR : 15118

2021-01-20 00:57:57 - A1 Groen-blauwlaan ZOETMR : 15141

2021-01-19 20:14:48 - P 2 BDH-02 Stormschade (los dak/geveldeel) Woonvoorziening Buytenwegh Leopoldhove ZOETMR 155230

2021-01-19 20:10:06 - A1 Nederlandlaan ZOETMR : 15148

2021-01-19 16:36:41 - P 2 BDH-04 Stormschade (los dak/geveldeel) Ambachtsherenlaan van wijngaardenstraat ZOETMR 155250

2021-01-19 16:22:09 - B2 Salomeschouw ZOETMR : 15436

2021-01-19 16:19:16 - P 2 BDH-04 Stormschade (los dak/geveldeel) Ambachtsherenlaan van wijngaardenstraat ZOETMR 155330

2021-01-19 15:40:21 - A2 Taagstroom ZOETMR : 15142

2021-01-19 15:09:43 - B2 Reinier Haga orthopedisch centrum Toneellaan ZOETMR : 15221

2021-01-19 15:01:37 - B2 Ziekenhuis 't Langeland Toneellaan ZOETMR : 15436

2021-01-19 15:00:50 - B1 LL Zkh. Long (R59) / Toneellaan ZOETMR : 15240

2021-01-19 14:53:46 - P 2 BDH-05 Ass. ambu (tilassistentie) Anjeliertuin ZOETMR 155330

2021-01-19 14:33:36 - A1 Cretstraat ZOETMR : 15143

2021-01-19 13:53:18 - A1 De Watertoren Nathaliegang ZOETMR : 15147

2021-01-19 13:39:52 - B2 LL Zkh. Interne (R60) / Toneellaan ZOETMR : 15225

2021-01-19 13:00:03 - A1 Alferbos ZOETMR : 15142

2021-01-19 12:23:16 - B2 Anjeliertuin ZOETMR : 15225

2021-01-19 12:12:01 - P 1 BDH-03 Voertuigbrand Afrit A12 Re - Zoetermeer-Centrum 6 13,3 ZOETMR 155130

2021-01-19 12:04:29 - A1 Shakespearezijde ZOETMR : 15141

2021-01-19 11:58:46 - A1 N470 Re - Oostweg 16,3 ZOETMR : 15146

2021-01-19 11:55:58 - P 1 BDH-02 Voertuig te water N470 Re - Oostweg 16,3 ZOETMR 155170 159591 155510 163110 155250 155330 157489 157487 157480

2021-01-19 11:55:35 - Prio 1 N470 Re - Oostweg 16,3 ZOETMR Voertuig te water

2021-01-19 11:41:42 - A1 LL Zkh. CCU / Toneellaan ZOETMR : 15142

2021-01-19 11:06:23 - B1 Douzapad ZOETMR : 15225

2021-01-19 10:54:48 - A2 Huisartspraktijk 3c (dr. Verhoef) Uiterwaard ZOETMR : 15142

2021-01-19 10:27:57 - A1 Nathaliegang ZOETMR : 15141

2021-01-19 09:49:12 - A2 Stadhoudersring ZOETMR : 16152

2021-01-19 09:48:37 - A1 Cadmiumgeel ZOETMR : 15146

2021-01-19 09:47:35 - A2 Stadhoudersring ZOETMR : 15146

2021-01-19 09:11:42 - A2 Andoornvaart ZOETMR : 15105

2021-01-19 09:11:18 - A1 Dunantstraat ZOETMR : 15117

2021-01-19 09:04:40 - A2 Andoornvaart ZOETMR : 15117

2021-01-19 09:03:40 - A1 Willem van Cleeflaan ZOETMR : 16152

2021-01-19 09:02:25 - B1 LL Zkh. Long (R59) / Toneellaan ZOETMR : 15221

2021-01-19 08:55:20 - A1 Nathaliegang ZOETMR : 15106

2021-01-19 08:36:44 - A1 De la Gardestraat ZOETMR : 15146

2021-01-19 02:33:59 - A1 Oostwaarts ZOETMR : 15141

2021-01-19 00:39:23 - A2 Alferbos ZOETMR : 15141

2021-01-18 22:49:55 - A1 Hogerop ZOETMR : 15141

2021-01-18 22:46:04 - A1 Hogerop ZOETMR : 15148

2021-01-18 22:40:03 - A1 Griekenlandlaan ZOETMR : 15147

2021-01-18 22:28:52 - A2 Griekenlandlaan ZOETMR : 15147

2021-01-18 21:43:02 - A1 Fregatwerf ZOETMR : 15142

2021-01-18 20:25:25 - B1 Politiebureau 41 (Zoetermeer) Burgemeester Wegstap ZOETMR : 15213

2021-01-18 20:20:10 - A1 Duiveland ZOETMR : 15147

2021-01-18 19:52:46 - P 1 BDH-01 Stank/Hinder. lucht (gaslucht) Engelandlaan ZOETMR 155230

2021-01-18 19:34:29 - B1 SEH 't Lange Land / Toneellaan ZOETMR : 15240

2021-01-18 19:09:21 - A1 Vreebos ZOETMR : 15148

2021-01-18 16:33:14 - A1 Huisartsenpost Rokkeveen Groen-blauwlaan ZOETMR : 15143

2021-01-18 15:51:20 - P 2 BDH-05 Ongeval materieel (Lekkage: brandstof) A12 Re 15,9 ZOETMR 155170

2021-01-18 15:49:48 - P 2 BDH-05 Ongeval materieel (Lekkage: brandstof) A12 Re 15,9 ZOETMR 159660

2021-01-18 15:47:05 - P 2 BDH-05 Ongeval materieel (Lekkage: brandstof) A12 Re 15,9 ZOETMR 157430

2021-01-18 15:37:16 - Prio 4 A12 Re 15,6 ZOETMR Wegverkeer verkeersstremming (soort stremming: pechgeval)

2021-01-18 15:35:24 - Prio 4 A12 Re 15,6 ZOETMR Wegverkeer afgevallen lading

2021-01-18 14:48:42 - B1 SEH 't Lange Land / Toneellaan ZOETMR : 15211

2021-01-18 14:46:42 - A2 Gezondheidscentrum Noordhove Sullivanlijn ZOETMR : 15143

2021-01-18 14:17:43 - P 2 BDH-01 Ass. ambu (afhijsen patient) Weidedreef ZOETMR 155250 155230

2021-01-18 13:59:49 - A2 Weidedreef ZOETMR : 15147

2021-01-18 12:59:42 - A1 Muurbloemtuin ZOETMR : 15109

2021-01-18 12:42:51 - A2 Antoon Coolenhove ZOETMR : (rapid) 15109

2021-01-18 12:39:36 - A1 LL Zkh. CCU / Toneellaan ZOETMR : 15143

2021-01-18 12:30:02 - B2 LL Zkh. Shortstay (R68) / Toneellaan ZOETMR : 15401

2021-01-18 12:29:34 - A2 Antoon Coolenhove ZOETMR : (rapid) 15143

2021-01-18 12:21:27 - A2 Petuniatuin ZOETMR : (rapid) 15342

2021-01-18 12:11:31 - A2 SEH 't Lange Land / Toneellaan ZOETMR : 15124

2021-01-18 11:48:17 - B2 LL Zkh. Interne (R60) / Toneellaan ZOETMR : 15212

2021-01-18 11:29:29 - B1 LL Zkh. covid 2d / Toneellaan ZOETMR : 15211

2021-01-18 11:10:14 - A1 Lessingzijde ZOETMR : 15124

2021-01-18 10:47:46 - A1 Uiterwaard ZOETMR : 15146

2021-01-18 10:43:44 - A1 Uiterwaard ZOETMR : 15128

2021-01-18 10:24:01 - A1 Edelgasstraat ZOETMR : 15146

2021-01-18 10:18:08 - A2 Alferbos ZOETMR : 15141

2021-01-18 10:04:34 - A2 SEH 't Lange Land / Toneellaan ZOETMR : 15148

2021-01-18 09:28:40 - A1 Dublinstraat ZOETMR : 15131

2021-01-18 09:13:25 - B2 SEH 't Lange Land / Toneellaan ZOETMR : 15402

2021-01-18 08:47:36 - A1 Dunantstraat ZOETMR : 15148

2021-01-18 08:33:12 - A1 Wagnerrode ZOETMR : 15147

2021-01-18 07:32:42 - A1 Orientblauw ZOETMR : 15147

2021-01-18 06:47:36 - A1 Rembrandtstraat ZOETMR : 15148

2021-01-18 06:40:01 - A1 Rembrandtstraat ZOETMR : 15141

2021-01-18 04:47:00 - A1 Violiervaart ZOETMR : 15141

2021-01-18 01:21:47 - P 1 BDH-01 Voertuigbrand A12 Li 11,8 ZOETMR 155230

2021-01-18 01:06:38 - A1 Salomeschouw ZOETMR : 15141

2021-01-18 00:11:21 - P 1 BDH-02 Voertuigbrand Fonteinbos ZOETMR 155230

2021-01-17 23:43:40 - A1 Bijdorplaan ZOETMR : 15113

2021-01-17 23:03:47 - A1 Kraaienveld ZOETMR : 15141

2021-01-17 22:43:00 - A2 Bijdorplaan ZOETMR : 15109

2021-01-17 22:31:34 - A1 Weidedreef ZOETMR : 15142

2021-01-17 22:17:49 - A1 Shetland ZOETMR : 15148

2021-01-17 20:41:40 - Prio 4 A12 Re 11,2 ZOETMR Wegverkeer verkeersstremming (soort stremming: pechgeval)

2021-01-17 20:31:58 - A1 Handelrode ZOETMR : 15126

2021-01-17 20:22:02 - A2 Herfstbruin ZOETMR : 15148

2021-01-17 20:04:55 - A2 AMBU 17304 Toneellaan 2725NA Zoetermeer ZOETMR bon 7481

2021-01-17 19:09:31 - P 1 BDH-01 Ongeval wegvervoer letsel (eCall: automatisch) Zuidweg ZOETMR 159591 155230

2021-01-17 19:07:59 - Prio 1 Zuidweg ZOETMR Ongeval wegvervoer letsel

2021-01-17 18:26:03 - B1 Politiebureau 41 (Zoetermeer) Burgemeester Wegstap ZOETMR : 15116

2021-01-17 17:21:11 - A1 Leerbroekstraat ZOETMR : 15116

2021-01-17 16:32:59 - A1 Essehout ZOETMR : 15148

2021-01-17 16:25:18 - A2 Kikkersloot ZOETMR : 15142

2021-01-17 14:58:10 - A2 Shawzijde ZOETMR : 15148

2021-01-17 14:55:16 - A2 Shawzijde ZOETMR : 15143

2021-01-17 14:29:03 - A1 Zalkerbos ZOETMR : 15141

2021-01-17 14:17:09 - B2 Buurtzorgpension Schoolstraat ZOETMR : 15212

2021-01-17 13:37:39 - A1 Oosterheemplein ZOETMR : 15143

2021-01-17 12:09:31 - A2 Delouvrierruimte ZOETMR : 15142

2021-01-17 11:07:59 - A1 Jessicagang ZOETMR : 15143

2021-01-17 10:47:33 - P 1 BDH-01 Ongeval letsel (afhijsen patient) Vijverdreef ZOETMR 155250 155230

2021-01-17 10:37:33 - A1 Vijverdreef ZOETMR : 15142

2021-01-17 09:03:23 - B2 Welthuis Locatie Vivaldi Brechtzijde ZOETMR : 15401

2021-01-17 08:58:38 - A1 Elia Kazanstrook ZOETMR : 15143

2021-01-17 06:59:10 - A1 Edisonstraat ZOETMR : 15142

2021-01-17 05:23:45 - A1 Aspergeakker ZOETMR : 15143

2021-01-17 03:35:53 - B1 SEH 't Lange Land / Toneellaan ZOETMR : 15141

2021-01-17 02:50:12 - A1 Fonteinbos ZOETMR : 15108

2021-01-17 02:27:34 - A1 Kadoelerbos ZOETMR : 15143

2021-01-17 02:16:19 - A2 Post Zoetermeer / Blauw-roodlaan ZOETMR VWS 15108

2021-01-17 02:15:16 - B1 SEH 't Lange Land / Toneellaan ZOETMR : 15143

2021-01-17 02:05:09 - B1 SEH 't Lange Land / Toneellaan ZOETMR : 15220

2021-01-16 17:20:01 - A1 Berkehout ZOETMR : 15148

2021-01-16 16:44:10 - B2 SEH 't Lange Land / Toneellaan ZOETMR : 15211

2021-01-16 15:53:51 - A2 Welthuis Locatie Domus Bijdorplaan ZOETMR : 15141

2021-01-16 15:04:12 - A1 Planbaan rotonde ZOETMR : 15148

2021-01-16 15:03:14 - Prio 1 Planbaan rotonde ZOETMR Ongeval wegvervoer letsel

2021-01-16 14:49:19 - A1 Beatrijspad ZOETMR : 15112

2021-01-16 14:32:08 - A1 Sardinie ZOETMR : 15142

2021-01-16 12:49:45 - A2 Rockanjestraat ZOETMR : 15143

2021-01-16 12:44:10 - A2 Banckertstraat ZOETMR : 15142

2021-01-16 12:39:02 - B2 LL Zkh. Gyn. R65/ Toneellaan ZOETMR : 15402

2021-01-16 12:35:40 - A1 Abrikozengaarde ZOETMR : 15118

2021-01-16 11:48:53 - A1 Shawzijde ZOETMR : 15112

2021-01-16 11:34:51 - A1 Welthuis Locatie Buytenhaghe Bergmanstrook ZOETMR : 15142

2021-01-16 11:12:38 - P 2 BDH-11 Ass. ambu afhij;%n pa|?) Lijnbaan ZOETMR 15527: 155230

2021-01-16 10:33:02 - A2 LL Zkh. ICU (R29) / Toneellaan ZOETMR : 15141

2021-01-16 10:23:19 - P 2 BDH-10 CO-melder (koolmonoxide/CO) Zegwaartseweg ZOETMR 162236

2021-01-16 10:23:19 - P 2 BDH-10 CO-melder (koolmonoxide/CO) Zegwaartseweg ZOETMR 162236

2021-01-16 10:23:19 - P 2 BDH-10 CO-melder (koolmonoxide/CO) Zegwaartseweg ZOETMR 162236

2021-01-16 10:23:19 - P 2 BDH-10 CO-melder (koolmonoxide/CO) Zegwaartseweg ZOETMR 162236

2021-01-16 09:54:30 - A1 Nathaliegang ZOETMR : 15143

2021-01-16 09:43:04 - A1 Bronsgroen ZOETMR : 15117

2021-01-16 09:42:55 - A1 Bronsgroen ZOETMR : 15142

2021-01-16 09:42:29 - A1 Bronsgroen ZOETMR : 15142

2021-01-16 09:04:12 - A1 Dadelgaarde ZOETMR : 15141

2021-01-16 08:58:08 - P 1 BDH-06 Nacontrole brand Gondelkade ZOETMR 155330

2021-01-16 08:58:08 - P 1 BDH-06 Nacontrole brand Gondelkade ZOETMR 155330

2021-01-16 08:58:08 - P 1 BDH-06 Nacontrole brand Gondelkade ZOETMR 155330

2021-01-16 08:58:08 - P 1 BDH-06 Nacontrole brand Gondelkade ZOETMR 155330

2021-01-16 08:46:59 - P 1 BDH-05 Ass. ambu (tilassistentie) Tempelberg ZOETMR 155230

2021-01-16 08:46:59 - P 1 BDH-05 Ass. ambu (tilassistentie) Tempelberg ZOETMR 155230

2021-01-16 08:46:59 - P 1 BDH-05 Ass. ambu (tilassistentie) Tempelberg ZOETMR 155230

2021-01-16 08:37:47 - A1 Tempelberg ZOETMR : 15143

2021-01-16 08:35:21 - A1 Tempelberg ZOETMR : 15113

2021-01-16 07:53:23 - A1 Bakemaplan ZOETMR : 15143

2021-01-16 07:52:34 - A2 Juweellaan ZOETMR : 15142

2021-01-16 02:07:00 - B2 SEH 't Lange Land / Toneellaan ZOETMR : 15220

2021-01-16 17:20:01 - A1 Berkehout ZOETMR : 15148

2021-01-16 16:44:10 - B2 SEH 't Lange Land / Toneellaan ZOETMR : 15211

2021-01-16 15:53:51 - A2 Welthuis Locatie Domus Bijdorplaan ZOETMR : 15141

2021-01-16 15:04:12 - A1 Planbaan rotonde ZOETMR : 15148

2021-01-16 15:03:14 - Prio 1 Planbaan rotonde ZOETMR Ongeval wegvervoer letsel

2021-01-16 14:49:19 - A1 Beatrijspad ZOETMR : 15112

2021-01-16 14:32:08 - A1 Sardinie ZOETMR : 15142

2021-01-16 12:49:45 - A2 Rockanjestraat ZOETMR : 15143

2021-01-16 12:44:10 - A2 Banckertstraat ZOETMR : 15142

2021-01-16 12:39:02 - B2 LL Zkh. Gyn. R65/ Toneellaan ZOETMR : 15402

2021-01-16 12:35:40 - A1 Abrikozengaarde ZOETMR : 15118

2021-01-16 11:48:53 - A1 Shawzijde ZOETMR : 15112

2021-01-16 11:34:51 - A1 Welthuis Locatie Buytenhaghe Bergmanstrook ZOETMR : 15142

2021-01-16 11:12:38 - P 2 BDH-11 Ass. ambu afhij;%n pa|?) Lijnbaan ZOETMR 15527: 155230

2021-01-16 10:33:02 - A2 LL Zkh. ICU (R29) / Toneellaan ZOETMR : 15141

2021-01-16 10:23:19 - P 2 BDH-10 CO-melder (koolmonoxide/CO) Zegwaartseweg ZOETMR 162236

2021-01-16 10:23:19 - P 2 BDH-10 CO-melder (koolmonoxide/CO) Zegwaartseweg ZOETMR 162236

2021-01-16 10:23:19 - P 2 BDH-10 CO-melder (koolmonoxide/CO) Zegwaartseweg ZOETMR 162236

2021-01-16 10:23:19 - P 2 BDH-10 CO-melder (koolmonoxide/CO) Zegwaartseweg ZOETMR 162236

2021-01-16 09:54:30 - A1 Nathaliegang ZOETMR : 15143

2021-01-16 09:43:04 - A1 Bronsgroen ZOETMR : 15117

2021-01-16 09:42:55 - A1 Bronsgroen ZOETMR : 15142

2021-01-16 09:42:29 - A1 Bronsgroen ZOETMR : 15142

2021-01-16 09:04:12 - A1 Dadelgaarde ZOETMR : 15141

2021-01-16 08:58:08 - P 1 BDH-06 Nacontrole brand Gondelkade ZOETMR 155330

2021-01-16 08:58:08 - P 1 BDH-06 Nacontrole brand Gondelkade ZOETMR 155330

2021-01-16 08:58:08 - P 1 BDH-06 Nacontrole brand Gondelkade ZOETMR 155330

2021-01-16 08:58:08 - P 1 BDH-06 Nacontrole brand Gondelkade ZOETMR 155330

2021-01-16 08:46:59 - P 1 BDH-05 Ass. ambu (tilassistentie) Tempelberg ZOETMR 155230

2021-01-16 08:46:59 - P 1 BDH-05 Ass. ambu (tilassistentie) Tempelberg ZOETMR 155230

2021-01-16 08:46:59 - P 1 BDH-05 Ass. ambu (tilassistentie) Tempelberg ZOETMR 155230

2021-01-16 08:37:47 - A1 Tempelberg ZOETMR : 15143

2021-01-16 08:35:21 - A1 Tempelberg ZOETMR : 15113

2021-01-16 07:53:23 - A1 Bakemaplan ZOETMR : 15143

2021-01-16 07:52:34 - A2 Juweellaan ZOETMR : 15142

2021-01-16 02:07:00 - B2 SEH 't Lange Land / Toneellaan ZOETMR : 15220

Over 247nu.nl

Op 247nu.nl lees je laatste P2000 meldingen uit heel Nederland, met respect voor de privacy van de burger. Ons doel is om zo accuraat mogelijk regionale en lokale alarmeringen te vermelden over politie, brandweer en ambulancehulpdiensten.

Social

  1. Twitter